weather.gov     
National Weather Service

Terminal Aerodrome Forecast
NWS Homepage
This page is being discontinued on March 12, 2014.
The same data is available at this site. Please update your bookmarks.
Thank you, and we apologize for the inconvenience.
Please send an email to SR-SRH.Webmaster@noaa.gov with any concerns.


Current Version
Previous Version:    01  02  03  04  05  06  07  08  09  10  11  12  13  14  15  16  17  18  19  20  21  22  23  24  25  26  27  28  29  30  
[Printable]
078
FTUS44 KBMX 280800 AAB
TAFANB
TAF AMD
KANB 280823Z 2808/2906 24006KT P6SM VCTS SCT030CB BKN070
      TEMPO 2808/2809 3SM TSRA
     FM281000 26007KT P6SM VCSH SCT030 BKN070
     FM281600 31012KT P6SM SCT030 BKN070
     FM290100 33005KT P6SM SKC=


U.S. Dept. of Commerce
NOAA National Weather Service
1325 East West Highway
Silver Spring, MD 20910
E-mail: w-nws.webmaster@noaa.gov
Page last modified: May 16, 2007
NATIONAL WEATHER SERVICE: for Safety, for Work, for Fun - FOR LIFE